Location: Béaulencourt
(50.0796°N, 2.8795°E)
Time: 22:35:05
(UTC+00:00)

Cosmos 1707 Rocket - Pass Details

Date: 20 January 2026
Orbit: 598 x 624 km, 82.5° (Epoch: 7 February)

Event Time Altitude Azimuth Distance (km) Brightness Sun altitude
Exits shadow 05:08:43 12° 359° (N) 1,847 5.9 -23.3°
Maximum altitude 05:12:42 55° 77° (ENE) 733 4.2 -22.7°
Drops below altitude 10° 05:16:56 10° 155° (SSE) 1,955 6.5 -22.0°
Sets 05:19:12 0° 160° (SSE) 2,859 7.3 -21.7°
